• In Hungary
  • List of Countries
  • For 7 days
  • Water Temperature
  • Satellite Maps
  • Weather Map
  • News
  • Weather Widgets
  • user-avatar
    Login

    Hourly Weather Rudno

    Today, 22 October, Monday

    Time Temperature Precipitation Wind Pressure Humidity
    00:00 +5°C° 0 mm 2 mps 754 mmHg 88%
    01:00 +4°C° 0 mm 2 mps 754 mmHg 91%
    02:00 +3°C° 0 mm 3 mps 753 mmHg 91%
    03:00 +3°C° 0 mm 3 mps 753 mmHg 92%
    04:00 +3°C° 0 mm 3 mps 753 mmHg 92%
    05:00 +3°C° 0 mm 3 mps 753 mmHg 92%
    06:00 +3°C° 0 mm 4 mps 753 mmHg 92%
    07:00 +3°C° 0 mm 4 mps 752 mmHg 89%
    08:00 +5°C° 0 mm 4 mps 752 mmHg 82%
    09:00 +6°C° 0 mm 5 mps 751 mmHg 76%
    10:00 +8°C° 0 mm 5 mps 751 mmHg 69%
    11:00 +9°C° 0 mm 5 mps 751 mmHg 68%
    12:00 +9°C° 0 mm 5 mps 750 mmHg 66%
    13:00 +10°C° 0 mm 5 mps 750 mmHg 65%
    14:00 +10°C° 0.5 mm 5 mps 750 mmHg 72%
    15:00 +9°C° 0.5 mm 5 mps 750 mmHg 78%
    16:00 +8°C° 0.5 mm 4 mps 749 mmHg 85%
    17:00 +8°C° 0.2 mm 4 mps 750 mmHg 84%
    18:00 +7°C° 0.2 mm 4 mps 750 mmHg 84%
    19:00 +6°C° 0.2 mm 4 mps 750 mmHg 83%
    20:00 +6°C° 0 mm 4 mps 750 mmHg 84%
    21:00 +5°C° 0 mm 4 mps 750 mmHg 84%
    22:00 +5°C° 0 mm 4 mps 750 mmHg 85%
    23:00 +4°C° 0 mm 4 mps 750 mmHg 86%

    Tomorrow, 23 October, Tuesday

    Time Temperature Precipitation Wind Pressure Humidity
    00:00 +4°C° 0 mm 4 mps 750 mmHg 87%
    01:00 +4°C° 0 mm 4 mps 749 mmHg 87%
    02:00 +4°C° 0 mm 4 mps 749 mmHg 88%
    03:00 +4°C° 0 mm 4 mps 748 mmHg 88%
    04:00 +3°C° 0 mm 5 mps 747 mmHg 88%
    05:00 +3°C° 0.3 mm 6 mps 746 mmHg 86%
    06:00 +3°C° 0.3 mm 6 mps 745 mmHg 85%
    07:00 +3°C° 0.3 mm 7 mps 744 mmHg 83%
    08:00 +4°C° 1 mm 8 mps 743 mmHg 82%
    09:00 +3°C° 1 mm 9 mps 741 mmHg 82%
    10:00 +3°C° 1 mm 9 mps 740 mmHg 81%
    11:00 +3°C° 0.8 mm 10 mps 738 mmHg 81%
    12:00 +5°C° 0.8 mm 10 mps 737 mmHg 81%
    13:00 +6°C° 0.8 mm 10 mps 735 mmHg 80%
    14:00 +6°C° 1.5 mm 10 mps 734 mmHg 82%
    15:00 +7°C° 1.5 mm 9 mps 733 mmHg 84%
    16:00 +7°C° 1.5 mm 8 mps 732 mmHg 85%
    17:00 +7°C° 0.3 mm 8 mps 732 mmHg 83%
    18:00 +8°C° 0.3 mm 7 mps 731 mmHg 81%
    19:00 +6°C° 0.3 mm 7 mps 731 mmHg 79%
    20:00 +7°C° 0 mm 6 mps 730 mmHg 79%
    21:00 +7°C° 0 mm 6 mps 730 mmHg 79%
    22:00 +5°C° 0 mm 6 mps 729 mmHg 79%
    23:00 +5°C° 0.1 mm 7 mps 728 mmHg 77%

    Day after tomorrow, 24 October, Wednesday

    Time Temperature Precipitation Wind Pressure Humidity
    00:00 +5°C° 0.1 mm 7 mps 728 mmHg 75%
    01:00 +5°C° 0.1 mm 8 mps 727 mmHg 73%
    02:00 +3°C° 0.5 mm 9 mps 728 mmHg 70%
    03:00 +3°C° 0.5 mm 10 mps 728 mmHg 67%
    04:00 +3°C° 0.5 mm 11 mps 728 mmHg 64%
    05:00 +2°C° 0.1 mm 10 mps 729 mmHg 63%
    06:00 +2°C° 0.1 mm 9 mps 730 mmHg 61%
    07:00 +1°C° 0.1 mm 8 mps 731 mmHg 59%
    08:00 +2°C° 0.2 mm 9 mps 732 mmHg 59%
    09:00 +2°C° 0.2 mm 10 mps 732 mmHg 59%
    10:00 +3°C° 0.2 mm 11 mps 732 mmHg 60%
    11:00 +3°C° 0.4 mm 12 mps 733 mmHg 61%
    12:00 +3°C° 0.4 mm 12 mps 733 mmHg 62%
    13:00 +4°C° 0.4 mm 13 mps 733 mmHg 63%
    14:00 +4°C° 0.2 mm 12 mps 734 mmHg 64%
    15:00 +4°C° 0.2 mm 12 mps 735 mmHg 64%
    16:00 +3°C° 0.2 mm 11 mps 736 mmHg 65%
    17:00 +3°C° 0.1 mm 10 mps 737 mmHg 66%
    18:00 +3°C° 0.1 mm 9 mps 738 mmHg 66%
    19:00 +3°C° 0.1 mm 9 mps 739 mmHg 67%
    20:00 +2°C° 0 mm 8 mps 739 mmHg 68%
    21:00 +3°C° 0 mm 7 mps 739 mmHg 69%
    22:00 +3°C° 0 mm 6 mps 739 mmHg 70%
    23:00 +2°C° 0 mm 5 mps 739 mmHg 72%

    25 October, Thursday

    Time Temperature Precipitation Wind Pressure Humidity
    00:00 +2°C° 0 mm 5 mps 739 mmHg 73%
    01:00 +2°C° 0 mm 5 mps 739 mmHg 75%
    02:00 +3°C° 0 mm 4 mps 739 mmHg 75%
    03:00 +3°C° 0 mm 4 mps 738 mmHg 76%
    04:00 +3°C° 0 mm 4 mps 737 mmHg 77%
    05:00 +2°C° 1 mm 5 mps 736 mmHg 81%
    06:00 +3°C° 1 mm 5 mps 735 mmHg 86%
    07:00 +3°C° 1 mm 6 mps 734 mmHg 90%
    08:00 +5°C° 0.4 mm 7 mps 733 mmHg 83%
    09:00 +6°C° 0.4 mm 8 mps 733 mmHg 76%
    10:00 +8°C° 0.4 mm 10 mps 733 mmHg 69%
    11:00 +8°C° 0.2 mm 10 mps 733 mmHg 68%
    12:00 +8°C° 0.2 mm 9 mps 733 mmHg 66%
    13:00 +8°C° 0.2 mm 9 mps 734 mmHg 64%
    14:00 +9°C° 0 mm 8 mps 734 mmHg 66%
    15:00 +8°C° 0 mm 7 mps 735 mmHg 69%
    16:00 +8°C° 0 mm 5 mps 735 mmHg 71%
    17:00 +7°C° 0.1 mm 5 mps 736 mmHg 75%
    18:00 +7°C° 0.1 mm 5 mps 736 mmHg 78%
    19:00 +6°C° 0.1 mm 4 mps 737 mmHg 81%
    20:00 +6°C° 0 mm 4 mps 737 mmHg 82%
    21:00 +6°C° 0 mm 4 mps 737 mmHg 83%
    22:00 +5°C° 0 mm 4 mps 738 mmHg 84%
    23:00 +5°C° 0 mm 4 mps 738 mmHg 84%

    26 October, Friday

    Time Temperature Precipitation Wind Pressure Humidity
    00:00 +4°C° 0 mm 4 mps 738 mmHg 84%
    01:00 +4°C° 0 mm 4 mps 739 mmHg 84%
    02:00 +4°C° 0 mm 4 mps 739 mmHg 85%
    03:00 +3°C° 0 mm 3 mps 739 mmHg 87%
    04:00 +3°C° 0 mm 3 mps 740 mmHg 88%
    05:00 +3°C° 0 mm 3 mps 740 mmHg 88%
    06:00 +3°C° 0 mm 2 mps 740 mmHg 88%
    07:00 +3°C° 0 mm 2 mps 740 mmHg 88%
    08:00 +5°C° 0 mm 2 mps 740 mmHg 83%
    09:00 +6°C° 0 mm 2 mps 740 mmHg 77%
    10:00 +7°C° 0 mm 2 mps 741 mmHg 72%
    11:00 +8°C° 0 mm 3 mps 740 mmHg 71%
    12:00 +9°C° 0 mm 3 mps 740 mmHg 70%
    13:00 +10°C° 0 mm 4 mps 740 mmHg 69%
    14:00 +8°C° 0 mm 4 mps 739 mmHg 71%
    15:00 +9°C° 0 mm 3 mps 739 mmHg 73%
    16:00 +8°C° 0 mm 3 mps 739 mmHg 75%
    17:00 +7°C° 0 mm 4 mps 739 mmHg 76%
    18:00 +7°C° 0 mm 4 mps 738 mmHg 76%
    19:00 +7°C° 0 mm 5 mps 738 mmHg 77%
    20:00 +7°C° 0 mm 5 mps 738 mmHg 78%
    21:00 +7°C° 0 mm 5 mps 737 mmHg 78%
    22:00 +7°C° 0 mm 5 mps 737 mmHg 79%
    23:00 +7°C° 0 mm 5 mps 737 mmHg 79%

    27 October, Saturday

    Time Temperature Precipitation Wind Pressure Humidity
    00:00 +7°C° 0 mm 5 mps 736 mmHg 80%
    01:00 +7°C° 0 mm 5 mps 736 mmHg 80%
    02:00 +7°C° 0.1 mm 5 mps 735 mmHg 83%
    03:00 +7°C° 0.1 mm 5 mps 735 mmHg 85%
    04:00 +7°C° 0.1 mm 4 mps 735 mmHg 87%
    05:00 +7°C° 0 mm 4 mps 735 mmHg 90%
    06:00 +6°C° 0 mm 4 mps 735 mmHg 92%
    07:00 +6°C° 0 mm 4 mps 735 mmHg 95%
    08:00 +7°C° 0 mm 4 mps 735 mmHg 90%
    09:00 +8°C° 0 mm 4 mps 735 mmHg 85%
    10:00 +8°C° 0 mm 5 mps 736 mmHg 81%
    11:00 +10°C° 0 mm 4 mps 736 mmHg 77%
    12:00 +10°C° 0 mm 4 mps 735 mmHg 74%
    13:00 +10°C° 0 mm 3 mps 735 mmHg 70%
    14:00 +10°C° 0 mm 3 mps 735 mmHg 72%
    15:00 +9°C° 0 mm 2 mps 736 mmHg 73%
    16:00 +10°C° 0 mm 1 mps 736 mmHg 75%
    17:00 +9°C° 0.1 mm 1 mps 736 mmHg 76%
    18:00 +9°C° 0.1 mm 1 mps 736 mmHg 78%
    19:00 +9°C° 0.1 mm 1 mps 736 mmHg 79%
    20:00 +9°C° 0.4 mm 1 mps 735 mmHg 81%
    21:00 +8°C° 0.4 mm 1 mps 735 mmHg 82%
    22:00 +8°C° 0.4 mm 1 mps 735 mmHg 83%
    23:00 +7°C° 0.6 mm 2 mps 735 mmHg 84%

    28 October, Sunday

    Time Temperature Precipitation Wind Pressure Humidity
    00:00 +7°C° 0.6 mm 3 mps 734 mmHg 85%
    01:00 +7°C° 0.6 mm 3 mps 734 mmHg 86%
    02:00 +6°C° 0.3 mm 4 mps 734 mmHg 86%
    03:00 +6°C° 0.3 mm 4 mps 733 mmHg 87%
    04:00 +6°C° 0.3 mm 5 mps 733 mmHg 87%
    05:00 +6°C° 0.5 mm 5 mps 733 mmHg 87%
    06:00 +6°C° 0.5 mm 5 mps 733 mmHg 87%
    07:00 +5°C° 0.5 mm 6 mps 733 mmHg 87%
    08:00 +5°C° 0.3 mm 6 mps 733 mmHg 86%
    09:00 +5°C° 0.3 mm 5 mps 733 mmHg 84%
    10:00 +5°C° 0.3 mm 5 mps 733 mmHg 83%
    11:00 +5°C° 0.4 mm 5 mps 733 mmHg 83%
    12:00 +5°C° 0.4 mm 5 mps 733 mmHg 84%
    13:00 +5°C° 0.4 mm 4 mps 733 mmHg 84%
    14:00 +5°C° 0.5 mm 4 mps 733 mmHg 85%
    15:00 +5°C° 0.5 mm 3 mps 733 mmHg 87%
    16:00 +6°C° 0.5 mm 2 mps 734 mmHg 89%
    17:00 +5°C° 0.4 mm 3 mps 734 mmHg 89%
    18:00 +5°C° 0.4 mm 3 mps 735 mmHg 90%
    19:00 +4°C° 0.4 mm 4 mps 736 mmHg 90%
    20:00 +5°C° 0 mm 4 mps 736 mmHg 91%
    21:00 +5°C° 0 mm 4 mps 737 mmHg 91%
    22:00 +5°C° 0 mm 4 mps 738 mmHg 91%
    23:00 +5°C° 0.1 mm 5 mps 739 mmHg 90%
    Show more